ELECTRON R/B (44635 NORAD) Tracking and Keplerian Element Data

This shows tracking and keplerian element data for the satellite.

Feedback or suggestion? Click here.




ElementValue
Catalog44635
NameELECTRON R/B
Epoch Orbit383
Epoch Day316.76042596
Epoch Year2019
RAAN36.8809
Inclination87.8951
Eccentricity0.0624983
Argument of Perigee185.1346
Mean Anonmoly174.3254
Mean Motion14.40930075
Decay Rate0.00014653
L11 44635U 19069B 19316.76042596 .00014653 00000-0 34449-3 0 9992
L22 44635 87.8951 36.8809 0624983 185.1346 174.3254 14.40930075 3839

Live tracking and technical data element details for ELECTRON R/B (NORAD 44635). ELECTRON R/B can be tracked NOW for your location showing map with azimuth and elevation plus other details from your city location.

Track the satellite on the map from your city or location and see movement details for azimuth, elevation, latitude, longitude, range, height, and movement on the map or in text.







IsCatalogInMostPopularTable: catalog: 44635, numindb: 11
Update: records affected: 1



GetName: 44635 ELECTRON R/B

Hit Count: updated at: Thu, 14 Nov 2019 05:39:03 GMT